This is the latest recevied weather packets stored in our database for station/object DC1MPP-9. If no packets are shown the sender has not sent any weather packets the latest 10 day(s).
| Time | Temp. | Humidity | Pressure | Rain* | Wind** | Luminosity | Snow |
|---|---|---|---|---|---|---|---|
| 1787752812 | 29.44° C | 49% | 960 hPa | - | - | - | - |
| 1787752571 | 28.89° C | 49% | 960 hPa | - | - | - | - |
| 1787752330 | 28.89° C | 47% | 960 hPa | - | - | - | - |
| 1787752089 | 30° C | 51% | 960 hPa | - | - | - | - |
| 1787751366 | 28.89° C | 57% | 960 hPa | - | - | - | - |
| 1787751125 | 28.33° C | 51% | 960 hPa | - | - | - | - |
| 1787750643 | 28.89° C | 59% | 960 hPa | - | - | - | - |
| 1787750402 | 28.89° C | 59% | 960 hPa | - | - | - | - |
| 1787750160 | 28.89° C | 56% | 960 hPa | - | - | - | - |
| 1787749919 | 29.44° C | 50% | 960 hPa | - | - | - | - |
| 1787749678 | 29.44° C | 54% | 960 hPa | - | - | - | - |
| 1787749437 | 29.44° C | 49% | 960 hPa | - | - | - | - |
| 1787748955 | 30° C | 51% | 960 hPa | - | - | - | - |
| 1787748714 | 30° C | 53% | 960 hPa | - | - | - | - |
| 1787748473 | 29.44° C | 53% | 960 hPa | - | - | - | - |
| 1787748232 | 29.44° C | 55% | 960 hPa | - | - | - | - |
| 1787747750 | 30° C | 55% | 960 hPa | - | - | - | - |
| 1787747509 | 30° C | 52% | 960 hPa | - | - | - | - |
| 1787747027 | 30° C | 54% | 960 hPa | - | - | - | - |
| 1787746544 | 30° C | 57% | 960 hPa | - | - | - | - |
| 1787746062 | 29.44° C | 55% | 960 hPa | - | - | - | - |
| 1787745821 | 29.44° C | 57% | 960 hPa | - | - | - | - |
| 1787745580 | 29.44° C | 62% | 960 hPa | - | - | - | - |
| 1787745339 | 29.44° C | 55% | 960 hPa | - | - | - | - |
| 1787745098 | 29.44° C | 56% | 960 hPa | - | - | - | - |
* Rain since midnight (hover to see other rain measurements)
** Current wind speed in m/s (hover to see current wind gust speed)